Dewpoint
13 12 9 10 10 10 11 10 10 10 10 10 11 8 9 11 9 3 1 0 1 1 -2 7 10 10 11 11 11 10 10 10 10 10 9 10 10 11 10 10 11 11 8
13 12 10 9 10 10 10 10 10 10 10 10 10 9 9 11 11 5 6 4 6 -2 -2 -2 5 8 9 10 10 9 10 10 10 10 10 11 11 11 10 10 11 11 8
10 11 11 10 9 9 9 10 9 10 10 9 9 8 8 9 11 3 5 9 9 1 -0 -1 -2 -0 6 9 10 9 10 10 10 10 10 10 11 11 11 11 11 11 9
10 10 11 12 11 10 9 9 10 10 10 9 9 9 9 9 5 5 0 4 3 1 2 1 1 -1 1 6 7 8 9 9 9 10 10 10 11 11 11 11 11 11 10
9 9 10 11 10 10 9 9 10 10 9 10 10 10 11 7 6 9 5 1 0 1 2 2 1 1 -0 4 9 8 8 8 9 9 10 10 11 11 11 11 11 11 11
8 8 10 10 10 9 8 8 9 8 8 9 10 10 11 10 10 11 9 7 3 3 3 3 3 2 1 -0 5 9 9 8 7 6 7 10 10 11 11 11 11 11 11
6 8 10 10 9 8 8 8 8 7 8 7 7 9 10 10 10 10 10 5 4 4 4 5 4 3 3 1 1 5 6 6 5 6 7 6 6 10 11 11 11 11 11
6 6 8 8 9 8 8 7 6 6 6 8 9 9 10 10 10 10 10 6 4 4 6 8 8 5 4 4 2 1 3 6 6 2 3 6 4 7 10 11 11 12 12
6 5 8 9 9 8 8 7 7 7 6 7 8 9 9 10 10 10 10 9 8 8 10 10 9 9 8 7 6 3 2 3 4 5 3 1 3 4 7 6 11 11 12
6 5 5 5 6 7 8 8 7 6 7 8 9 9 10 11 11 11 10 9 7 9 8 9 9 9 9 9 8 7 5 2 4 6 6 7 7 -1 2 7 7 5 9
3 4 5 4 3 3 5 7 7 7 8 9 9 10 10 10 11 10 8 7 8 8 9 8 7 8 8 9 8 8 7 7 5 6 7 8 8 7 5 -2 7 9 5
-1 0 4 5 4 4 5 7 7 8 8 8 8 9 9 10 9 9 9 9 8 8 9 8 8 9 8 8 8 8 8 8 8 6 8 8 8 9 9 7 2 1 10
1 2 1 5 5 4 4 5 6 7 8 8 8 8 8 9 9 10 9 9 9 9 8 8 9 9 9 8 9 9 9 9 9 9 9 10 10 10 10 10 8 7 -1
2 4 3 3 4 4 4 5 5 6 7 8 8 9 8 9 9 9 9 9 9 9 9 8 8 9 9 9 9 9 9 8 9 9 9 9 8 8 10 10 8 8 8
3 5 5 6 6 5 4 4 5 5 4 4 6 7 8 9 9 8 8 9 9 9 9 9 8 8 8 8 9 9 8 8 8 9 8 9 8 8 8 10 8 5 8
3 5 7 7 6 4 4 4 4 4 4 3 2 1 1 2 1 2 5 9 10 10 10 10 10 10 10 9 9 9 9 9 8 7 7 7 7 7 8 9 8 3 5
1 5 6 7 6 4 3 4 4 3 3 2 1 0 -1 -2 -2 -3 -1 1 1 4 4 5 9 9 8 9 9 9 9 8 7 6 6 7 5 -2 -2 5 3 -1 3
0 3 5 7 6 4 3 4 3 2 2 2 1 0 -2 -4 -5 -6 -4 -1 2 5 7 8 8 9 8 9 9 8 7 5 0 -2 -5 -3 -5 -5 -5 -4 -4 -4 2
-7 -0 6 7 6 4 4 4 2 1 1 1 0 -1 -3 -5 -6 -7 -6 -5 -1 2 3 4 5 5 6 6 6 5 3 1 0 -0 -2 -3 -4 -4 -5 -5 -2 -0 3
-6 -0 7 8 7 5 4 2 1 1 1 0 -1 -2 -4 -6 -7 -7 -8 -8 -6 -6 -6 -6 -6 -6 -5 -4 -2 -0 0 1 1 -1 -2 -2 -2 -3 -3 -3 0 2 1
-6 -2 7 8 6 5 4 2 1 1 0 -1 -1 -2 -4 -6 -7 -8 -9 -9 -8 -8 -8 -7 -6 -6 -5 -4 -4 -2 0 1 0 -0 1 1 1 0 1 -1 -1 1 1
-6 -5 3 7 6 5 5 3 2 1 1 -0 -1 -2 -5 -6 -7 -9 -10 -10 -9 -9 -8 -7 -6 -5 -4 -3 -2 -2 1 3 3 4 3 3 4 5 5 4 4 3 3
-8 -5 -1 5 5 5 5 4 3 2 1 0 -1 -2 -4 -5 -8 -10 -10 -10 -10 -9 -8 -7 -6 -5 -4 -2 -2 -1 2 2 4 5 5 4 4 5 5 4 4 4 4
-9 -5 -0 4 5 5 4 4 3 2 2 1 0 -0 -2 -4 -7 -9 -9 -9 -9 -9 -8 -7 -6 -5 -4 -3 -1 -2 2 2 4 4 5 5 4 3 3 2 1 0 0
-9 -8 -3 3 5 5 4 4 4 3 2 2 1 1 0 -2 -5 -7 -8 -8 -8 -8 -7 -7 -6 -5 -4 -3 -1 -1 -1 2 2 3 3 4 4 4 3 2 1 0 1
-9 -8 -5 2 4 4 4 4 3 3 3 3 2 2 2 -0 -3 -5 -5 -6 -7 -7 -7 -7 -6 -5 -4 -4 -2 -1 -2 -2 -1 3 2 2 3 3 3 1 -1 -0 2
Wind_Speed
1 3 2 3 2 2 2 1 1 1 2 3 3 5 5 5 6 8 8 9 8 8 9 9 9 10 10 10 10 11 11 10 9 9 9 8 8 8 8 10 11 10 11
2 2 2 4 2 2 1 0 0 1 2 2 2 3 3 4 7 8 8 8 8 9 9 9 7 8 8 8 8 9 9 9 9 9 8 8 7 6 6 8 9 10 9
2 1 2 2 2 1 0 1 1 1 2 2 2 2 3 3 3 7 8 8 8 9 10 9 7 6 5 5 6 7 8 9 9 9 7 6 5 4 5 6 8 9 9
2 1 1 1 1 1 1 1 0 1 2 3 3 3 2 3 1 4 6 7 6 7 8 8 7 6 4 3 3 4 4 4 5 6 7 6 4 3 3 5 8 9 8
4 3 2 1 1 1 0 1 1 2 1 2 2 2 1 2 2 4 6 6 5 5 6 6 6 6 4 3 2 3 3 4 4 4 5 6 3 1 3 5 6 7 6
3 4 2 2 1 1 1 2 3 2 1 1 1 2 2 2 2 3 2 1 3 3 5 5 5 4 4 2 1 2 3 3 4 4 4 3 4 1 2 4 6 8 8
2 6 4 3 2 2 2 3 3 1 2 3 3 2 3 3 3 3 4 2 2 2 3 4 4 3 2 2 2 2 3 4 5 5 5 3 3 2 2 3 5 7 7
3 4 5 4 3 2 3 4 2 1 2 2 3 3 3 3 4 5 5 4 4 3 3 2 2 2 2 2 3 5 4 5 6 6 5 5 3 2 2 2 4 5 6
4 3 5 5 4 4 4 4 4 4 3 3 3 3 4 4 5 6 6 6 5 3 3 1 1 2 1 3 4 6 7 6 6 4 4 4 4 3 3 3 3 4 5
6 5 5 5 5 4 5 5 5 3 2 1 1 1 2 3 4 4 6 5 5 4 4 4 5 5 5 6 7 7 7 7 7 5 5 3 4 3 4 5 6 6 6
8 9 7 6 5 4 3 3 3 3 1 1 1 1 1 3 3 5 5 7 7 8 8 9 8 8 8 7 9 12 9 9 8 8 7 6 6 5 4 5 6 7 8
8 8 8 7 5 4 4 3 3 3 3 3 3 3 4 4 4 5 6 7 8 8 11 10 12 17 14 12 12 11 9 9 9 8 9 9 9 6 6 6 6 7 7
8 8 4 7 4 4 4 4 5 4 4 5 5 5 5 7 8 9 10 11 11 11 11 14 12 12 11 14 13 11 11 9 10 11 10 10 10 10 9 10 9 8 7
11 7 7 7 5 5 5 5 5 5 5 7 7 7 7 6 7 10 12 13 13 14 14 13 11 11 10 11 11 11 11 10 10 13 13 12 12 12 14 14 11 12 11
13 10 7 7 7 6 6 5 5 5 4 5 6 7 8 9 11 11 12 13 14 15 16 16 15 15 16 15 16 17 18 19 19 15 16 16 15 15 17 15 13 12 13
12 11 9 7 7 8 8 7 6 6 6 6 6 7 9 9 11 11 11 11 13 12 13 14 14 13 14 15 16 15 14 14 14 15 15 14 17 17 17 20 19 16 14
12 11 10 8 8 9 9 9 8 7 6 6 7 8 9 10 11 12 12 13 13 13 15 15 11 11 11 12 14 14 14 15 16 19 21 21 19 16 21 22 21 18 15
16 15 13 12 10 9 10 10 9 8 7 7 8 9 10 11 11 12 13 13 13 13 13 12 12 13 14 15 16 15 15 16 14 13 12 12 14 16 19 17 17 16 14
17 17 17 14 11 10 11 11 10 9 9 8 9 9 10 11 12 13 13 13 14 14 15 15 15 16 16 17 17 17 16 15 15 14 15 15 14 15 15 15 14 14 13
16 17 19 17 14 11 11 12 12 11 10 9 9 10 11 12 13 13 13 13 13 13 14 14 15 15 16 17 18 18 16 15 14 14 14 13 12 13 13 13 12 13 11
18 18 22 21 17 13 11 12 14 13 11 11 11 11 11 13 13 13 12 13 13 13 13 14 14 14 14 14 15 15 15 14 14 12 11 9 8 9 9 10 11 11 10
18 18 22 22 19 14 12 12 13 14 14 12 11 11 12 12 13 13 13 13 13 13 13 13 13 14 14 13 12 11 8 11 12 11 9 7 5 5 5 4 5 5 6
20 20 22 22 20 17 14 14 15 16 15 13 12 11 12 12 12 12 13 13 14 14 13 13 13 13 13 12 12 10 5 7 9 12 11 8 7 6 5 5 4 3 4
19 19 21 22 22 19 18 16 14 14 15 13 13 13 13 13 13 13 14 14 14 14 13 13 13 12 13 12 12 14 16 8 7 6 13 12 10 9 8 7 5 5 5
19 21 22 24 23 22 19 15 14 15 15 15 15 15 15 15 14 15 15 15 15 15 14 14 13 12 12 13 13 13 15 17 15 11 6 14 13 11 10 9 7 6 6
21 20 22 24 24 22 19 16 15 14 13 15 15 16 16 17 17 16 16 16 16 16 15 15 14 13 13 13 13 14 15 12 14 15 11 8 11 11 11 10 9 7 7
Wind_Direction
24 35 56 75 76 59 47 45 21 75 63 55 17 20 28 40 33 37 42 52 60 62 65 79 77 83 81 81 83 86 84 83 83 85 87 92 98 109 118 121 122 120 114
127 71 68 74 72 78 106 154 191 98 93 103 72 38 31 38 32 30 39 53 59 65 68 73 77 78 81 82 80 81 82 78 74 77 83 90 98 107 123 130 134 130 120
136 62 66 60 52 46 15 187 247 69 76 82 66 51 48 48 42 15 52 59 60 70 71 70 74 82 89 93 87 82 78 79 75 71 73 85 89 102 133 146 148 138 123
194 187 176 63 352 7 350 295 228 93 86 100 105 108 114 123 82 54 55 56 61 71 77 75 71 74 87 88 78 78 86 77 68 64 58 62 85 109 145 164 165 155 141
190 186 185 193 83 67 178 163 164 129 112 99 110 113 129 123 124 124 86 62 53 63 69 70 68 71 76 89 70 62 67 69 59 42 44 47 52 128 168 175 176 167 153
215 202 186 172 177 141 143 158 160 120 111 134 137 162 182 191 175 190 180 263 96 100 82 74 64 52 48 44 19 24 21 25 22 11 5 5 20 327 211 183 189 183 178
221 201 203 204 218 189 171 158 172 268 266 253 257 238 214 207 209 220 207 197 187 118 100 94 89 75 38 359 324 322 338 347 358 357 357 339 324 333 219 207 193 200 199
205 223 209 209 222 213 174 161 166 5 326 280 261 240 230 238 240 229 216 215 205 181 164 155 120 89 27 321 302 293 306 318 332 356 1 8 358 297 323 252 208 219 208
211 205 207 210 217 216 221 241 271 295 297 272 250 248 262 263 250 241 231 221 209 210 216 193 71 322 269 272 291 292 299 296 308 336 350 2 355 313 280 271 254 238 223
222 206 205 207 214 231 249 267 284 291 289 242 207 236 255 268 274 262 242 244 247 241 246 262 295 311 312 296 290 282 288 293 294 312 326 331 356 350 305 283 271 260 251
232 218 215 218 216 233 250 265 287 303 284 222 258 250 244 254 261 263 250 248 242 252 270 272 275 283 284 307 302 293 293 299 291 302 303 307 317 331 328 300 276 265 258
233 229 224 222 224 234 253 258 272 278 271 272 264 275 280 258 257 254 260 259 259 261 273 267 273 294 272 281 280 281 286 289 287 283 295 299 297 312 317 302 297 272 262
240 230 194 198 216 231 253 263 268 268 270 276 280 279 272 263 256 257 266 274 270 272 276 281 282 292 262 268 279 271 269 280 281 270 266 275 282 295 301 299 284 275 266
229 222 215 213 231 236 237 251 254 259 278 277 279 279 279 265 265 269 271 272 273 276 276 274 282 290 283 270 273 266 261 276 270 270 272 260 263 288 295 293 281 273 266
229 221 223 229 251 259 253 250 249 256 276 292 298 294 282 272 279 276 272 272 274 274 278 275 278 277 275 270 270 275 277 277 274 260 264 263 267 280 288 291 289 285 276
228 222 223 228 247 254 247 241 239 249 265 283 297 303 301 299 296 289 283 280 282 286 287 285 283 273 273 273 281 284 283 284 276 272 266 266 276 273 280 278 289 285 276
240 226 227 234 249 250 243 241 243 247 263 280 291 296 301 302 302 301 300 299 293 289 289 280 281 280 275 271 268 270 273 274 276 277 270 266 272 266 272 275 275 274 273
231 229 226 230 246 253 244 241 246 254 262 271 280 286 293 296 296 294 292 291 290 288 292 288 276 269 270 269 269 270 271 274 277 276 278 275 267 265 261 267 262 261 260
231 225 225 229 243 247 240 243 248 254 262 269 276 285 289 291 292 291 290 289 288 290 291 288 285 281 278 275 274 272 272 271 272 273 273 270 270 266 259 258 259 254 248
231 223 224 227 232 237 240 244 248 252 261 269 275 282 288 290 291 291 290 289 290 291 290 288 285 281 278 271 267 267 266 263 264 268 271 274 270 263 258 254 252 256 250
226 221 220 222 228 233 241 246 245 251 258 264 273 283 290 294 294 291 289 288 288 289 290 289 287 285 282 278 273 266 261 259 259 259 262 262 259 253 250 242 246 253 252
230 229 218 219 226 231 240 245 247 253 256 262 273 283 291 295 292 291 291 289 287 286 286 284 283 284 282 279 269 263 255 249 244 242 239 242 231 232 227 229 227 227 239
222 219 216 217 223 227 236 241 244 247 255 263 274 285 293 294 289 286 284 284 283 285 284 282 280 279 278 273 263 242 255 248 232 229 226 226 228 233 238 240 229 235 239
223 217 215 217 220 225 234 243 252 261 263 267 270 279 288 292 288 283 282 282 281 280 279 279 279 278 275 270 262 249 245 262 231 230 228 222 225 229 238 251 250 246 248
220 220 216 213 217 223 232 243 252 255 258 263 270 278 289 292 287 281 279 278 277 278 279 279 278 274 271 267 262 261 257 251 248 244 229 219 221 231 241 249 247 239 226
227 227 219 216 218 223 233 241 247 252 261 268 277 287 293 291 288 284 282 279 276 276 276 276 275 271 266 262 256 255 256 256 249 243 243 223 211 226 242 248 244 225 209
Height
1546 1545 1545 1546 1546 1547 1548 1548 1549 1549 1550 1551 1552 1551 1553 1553 1552 1551 1550 1549 1549 1548 1548 1547 1547 1546 1546 1546 1546 1546 1546 1546 1546 1546 1546 1547 1547 1548 1547 1547 1548 1549 1549
1545 1545 1546 1546 1546 1546 1547 1548 1549 1550 1550 1551 1551 1552 1553 1553 1554 1553 1551 1551 1551 1550 1550 1549 1549 1548 1548 1548 1548 1548 1548 1548 1548 1548 1548 1548 1548 1549 1548 1549 1549 1550 1550
1545 1545 1545 1546 1546 1546 1547 1548 1549 1550 1550 1550 1551 1552 1553 1554 1554 1554 1553 1553 1553 1551 1551 1551 1551 1550 1549 1549 1549 1549 1550 1550 1550 1550 1549 1549 1549 1550 1550 1550 1550 1550 1552
1545 1545 1545 1546 1546 1546 1547 1547 1548 1549 1549 1549 1550 1551 1551 1552 1553 1553 1553 1553 1553 1553 1552 1552 1552 1552 1551 1551 1550 1550 1551 1551 1551 1551 1551 1551 1551 1551 1551 1551 1552 1552 1552
1544 1544 1544 1545 1546 1546 1546 1547 1548 1548 1549 1549 1550 1551 1552 1552 1552 1551 1552 1553 1554 1554 1553 1554 1553 1553 1552 1551 1552 1551 1551 1551 1551 1552 1551 1551 1552 1551 1552 1552 1553 1553 1553
1543 1544 1544 1545 1545 1546 1546 1546 1547 1548 1548 1548 1549 1550 1551 1551 1552 1552 1553 1553 1552 1553 1553 1554 1555 1554 1554 1553 1552 1553 1553 1552 1552 1552 1552 1552 1552 1552 1552 1552 1553 1553 1553
1542 1543 1544 1544 1544 1545 1545 1546 1547 1548 1548 1548 1549 1549 1550 1550 1551 1551 1552 1552 1553 1553 1553 1555 1555 1555 1554 1554 1554 1553 1553 1553 1552 1552 1552 1552 1552 1552 1552 1553 1553 1554 1554
1541 1542 1542 1543 1544 1544 1545 1546 1547 1548 1548 1549 1549 1549 1550 1550 1551 1551 1551 1552 1552 1553 1554 1554 1555 1555 1555 1555 1554 1554 1552 1553 1553 1552 1552 1552 1552 1553 1553 1553 1553 1554 1553
1540 1541 1542 1543 1543 1544 1545 1546 1547 1547 1548 1548 1548 1549 1550 1550 1550 1551 1551 1552 1553 1554 1555 1554 1553 1555 1555 1554 1553 1554 1553 1552 1553 1552 1551 1552 1552 1552 1553 1554 1554 1555 1555
1540 1541 1542 1542 1543 1544 1545 1545 1546 1546 1547 1547 1548 1548 1549 1550 1551 1551 1552 1552 1553 1553 1554 1554 1554 1555 1555 1556 1553 1551 1552 1553 1554 1553 1552 1552 1551 1551 1553 1553 1553 1555 1555
1539 1540 1541 1542 1543 1543 1544 1545 1545 1546 1546 1547 1547 1548 1548 1549 1549 1550 1551 1552 1552 1552 1553 1553 1553 1554 1554 1554 1553 1552 1550 1552 1553 1554 1554 1553 1553 1551 1551 1552 1552 1553 1554
1537 1539 1540 1541 1542 1543 1543 1544 1544 1545 1546 1546 1547 1547 1548 1548 1549 1550 1550 1551 1552 1552 1552 1552 1552 1552 1552 1551 1552 1551 1550 1549 1550 1552 1553 1553 1553 1552 1551 1551 1551 1551 1552
1536 1537 1539 1540 1541 1542 1543 1543 1543 1544 1545 1545 1546 1546 1547 1548 1548 1549 1550 1550 1550 1551 1550 1550 1549 1548 1547 1548 1549 1549 1549 1548 1549 1550 1548 1550 1552 1551 1551 1551 1550 1550 1549
1533 1535 1536 1538 1539 1541 1542 1542 1542 1543 1544 1545 1545 1545 1546 1547 1547 1547 1548 1548 1548 1548 1549 1549 1548 1547 1546 1546 1547 1547 1547 1547 1547 1548 1548 1547 1547 1550 1551 1549 1548 1548 1548
1531 1533 1534 1536 1538 1539 1540 1541 1541 1542 1543 1543 1544 1544 1545 1546 1546 1546 1546 1546 1546 1546 1547 1547 1546 1546 1545 1545 1545 1545 1545 1545 1545 1544 1545 1546 1545 1545 1548 1548 1546 1546 1546
1528 1531 1533 1535 1536 1537 1538 1539 1540 1541 1541 1542 1543 1543 1544 1544 1544 1543 1543 1543 1543 1543 1543 1543 1543 1543 1543 1542 1541 1542 1542 1543 1542 1541 1541 1541 1542 1542 1545 1547 1545 1544 1544
1527 1529 1531 1532 1534 1534 1535 1537 1538 1539 1540 1541 1541 1542 1541 1542 1541 1541 1540 1540 1540 1540 1540 1539 1540 1540 1540 1540 1540 1540 1540 1540 1539 1539 1538 1537 1538 1540 1540 1542 1542 1542 1542
1523 1524 1527 1529 1531 1532 1534 1535 1536 1537 1538 1539 1539 1539 1539 1539 1539 1538 1538 1537 1537 1538 1537 1537 1537 1537 1538 1539 1538 1536 1536 1536 1535 1535 1534 1535 1534 1535 1538 1538 1539 1537 1539
1518 1521 1524 1527 1529 1530 1531 1533 1534 1534 1535 1536 1537 1536 1537 1536 1535 1535 1535 1535 1535 1535 1535 1536 1535 1535 1535 1535 1536 1535 1533 1532 1531 1531 1532 1532 1533 1532 1532 1534 1536 1536 1535
1517 1518 1521 1524 1526 1527 1528 1529 1530 1531 1532 1533 1534 1534 1533 1533 1533 1532 1532 1531 1531 1532 1532 1532 1532 1532 1531 1532 1532 1532 1531 1530 1529 1528 1529 1529 1529 1530 1529 1530 1532 1535 1533
1513 1515 1517 1520 1522 1523 1525 1526 1527 1528 1529 1530 1531 1531 1531 1531 1531 1530 1530 1531 1530 1530 1530 1529 1529 1529 1530 1530 1531 1529 1529 1527 1527 1525 1526 1525 1527 1527 1529 1527 1528 1530 1531
1509 1511 1513 1516 1518 1520 1522 1523 1525 1526 1527 1528 1529 1529 1529 1529 1528 1528 1528 1528 1528 1528 1528 1528 1527 1527 1527 1528 1528 1528 1528 1527 1525 1524 1524 1524 1524 1526 1528 1527 1528 1529 1531
1501 1504 1507 1511 1514 1516 1518 1519 1521 1522 1524 1526 1527 1528 1527 1526 1526 1525 1526 1525 1525 1525 1525 1525 1524 1524 1523 1525 1527 1528 1527 1525 1525 1524 1522 1523 1523 1525 1527 1528 1527 1527 1529
1497 1500 1503 1507 1509 1512 1514 1516 1518 1520 1522 1524 1524 1524 1523 1523 1522 1522 1522 1522 1521 1521 1521 1521 1522 1522 1521 1522 1523 1523 1525 1526 1524 1522 1521 1521 1522 1522 1524 1526 1525 1526 1526
1491 1493 1496 1500 1504 1507 1510 1513 1515 1517 1518 1520 1521 1521 1521 1521 1520 1520 1519 1518 1518 1518 1518 1518 1519 1519 1519 1520 1521 1522 1522 1523 1523 1522 1518 1519 1519 1520 1522 1524 1525 1524 1525
1488 1491 1494 1497 1501 1506 1509 1511 1512 1514 1517 1517 1518 1518 1519 1518 1518 1518 1517 1517 1516 1515 1515 1515 1515 1515 1515 1516 1517 1518 1520 1521 1521 1520 1518 1517 1516 1518 1520 1522 1522 1522 1523